Tracking 32214 objects as of 19-Nov-2025
HD Live streaming from Space Station
objects crossing your sky now

STARLINK-35649

Track STARLINK-35649 now!
10-day predictions
STARLINK-35649 is classified as:


NORAD ID: 66125
Int'l Code: 2025-237M
Perigee: 424.8 km
Apogee: 426.5 km
Inclination: 53.2 °
Period: 92.9 minutes
Semi major axis: 6796 km
RCS: Unknown
Launch date: October 22, 2025
Source: United States (US)
Launch site: AIR FORCE WESTERN TEST RANGE (AFWTR)
Your satellite tracking list
Your tracking list is empty




NASA's NSSDC Master Catalog

Two Line Element Set (TLE):
1 66125U 25237M   25322.65927706  .00093651  00000-0  16674-2 0  9995
2 66125  53.1607 200.8545 0001218 307.9693  52.1206 15.49384188  5537
Source of the keplerian elements: AFSPC